Regional Weather Roundup
Issued by NWS Sterling, VA

Home | Current Version | Previous Version | Text Only | Print | Product List | Glossary Off
Versions: 1 2 3 4 5 6 7 8 9 10 11 12 13 14 15 16 17 18 19 20 21 22 23 24 25 26 27

000
ASUS41 KLWX 212311
RWRLWX

REGIONAL WEATHER ROUNDUP
NATIONAL WEATHER SERVICE BALTIMORE MD/WASHINGTON DC
700 PM EDT FRI JUL 21 2017

Note: "FAIR" indicates few or no clouds below 12,000 feet
with no significant weather and/or obstructions to visibility.
 TC=TEMPERATURE CELSIUS

 * =Non NWS site. Station does not report precipitation (e.g. rain,
    snow, etc.), thunder, or fog.

DCZ001-MDZ009-015-VAZ040>042-051-053>054-220000-
WASHINGTON METRO

CITY           SKY/WX    TMP DP  RH WIND       PRES   REMARKS
WASHINGTON NAT PTSUNNY   93  71  48 S5        29.86F HX 100
DULLES         FAIR      89  71  55 E5        29.88R HX  95
ANDREWS AFB    FAIR      91  71  52 SW6       29.87F HX  97
FT BELVOIR     FAIR      89  76  64 CALM      29.86F HX  99
QUANTICO       FAIR      91  78  65 SE6       29.86F HX 106
COLLEGE PARK*  FAIR      90  72  56 E3        29.86S HX  97
LEESBURG*      CLOUDY    90  79  70 W3        29.90R HX 105
MANASSAS*      FAIR      89  75  63 W7        29.88R HX  99
GAITHERSBURG*  FAIR      86  74  67 CALM      29.90F HX  94

$$

MDZ006>007-011-014-220000-
BALTIMORE METRO

CITY           SKY/WX    TMP DP  RH WIND       PRES   REMARKS
BWI AIRPORT    PTSUNNY   89  70  53 SE7       29.86F HX  94
MD SCIENCE CTR   N/A     90  71  53 MISG      29.87F HX  96
MARTIN STATE   PTSUNNY   90  73  58 SE6       29.88F HX  98
ANNAPOLIS      FAIR      86  75  69 S6        29.86F HX  95
FORT MEADE*    FAIR      86  70  58 S3        29.89S HX  90

$$

MDZ012-015-019>023-220000-
MARYLAND EASTERN SHORE

CITY           SKY/WX    TMP DP  RH WIND       PRES   REMARKS
OCEAN CITY     FAIR      87  77  72 S5        29.88F HX  99
SALISBURY      SUNNY     90  73  58 SW6       29.88F HX  98
BAY BRIDGE AP* FAIR      91  73  55 S6        29.86F HX 100
CAMBRIDGE*     SUNNY     90  73  58 CALM      29.88F HX  98
EASTON*        MOSUNNY   91  72  52 SW7       29.91F HX  98

$$

MDZ017>025-220000-
SOUTHERN MARYLAND

CITY           SKY/WX    TMP DP  RH WIND       PRES   REMARKS
PATUXENT RIVER PTSUNNY   87  78  74 SE8       29.87F HX 100
ST INIGOES     FAIR      89  75  63 SE7       29.87F HX  99
LEONARDTOWN*   FAIR     N/A N/A N/A E3        29.89F

$$

MDZ003>005-220000-
NORTH CENTRAL MARYLAND

CITY           SKY/WX    TMP DP  RH WIND       PRES   REMARKS
FREDERICK*     SUNNY     90  73  58 CALM      29.90F HX  98
HAGERSTOWN APT CLOUDY    87  72  60 VRB6      29.91S HX  93
WESTMINSTER*   NOT AVBL

$$

MDZ501>502-220000-
WESTERN MARYLAND

CITY           SKY/WX    TMP DP  RH WIND       PRES   REMARKS
OAKLAND*       NOT AVBL
CUMBERLAND*    FAIR      82  73  74 SE3       29.97S

$$

VAZ025>031-220000-
SHENANDOAH VALLEY

CITY           SKY/WX    TMP DP  RH WIND       PRES   REMARKS
WINCHESTER*    CLOUDY    77  70  78 W6        29.94R
FRONT ROYAL*   FAIR      77  72  83 S6        29.93S
LURAY*         FAIR      79  73  83 CALM      29.96R
NEW MARKET*    FAIR      76  72  87 CALM      29.96R
STAUNTON*      FAIR      81  71  72 W5        30.00R
WAYNESBORO*    FAIR      78  73  83 SW6       30.00R

$$

WVZ021-048>050-054>055-220000-
EASTERN WEST VIRGINIA PANHANDLE

CITY           SKY/WX    TMP DP  RH WIND       PRES   REMARKS
MARTINSBURG    FAIR      80  73  79 SW5       29.91R
PETERSBURG*    FAIR      80  74  84 CALM      29.98R

$$

VAZ036>039-050-220000-
CENTRAL FOOTHILLS

CITY           SKY/WX    TMP DP  RH WIND       PRES   REMARKS
CHARLOTTESVILL FAIR      83  74  74 VRB3      29.92R
CULPEPER*      FAIR      83  72  69 CALM      29.91R
ORANGE*        FAIR      82  70  65 W5        29.90R
GORDONSVILLE*  FAIR      84  71  65 CALM      29.91R HX  90
WARRENTON*     FAIR      86  67  53 W6        29.90R

$$

VAZ055>057-220000-
NORTH AND CENTRAL PIEDMONT

CITY           SKY/WX    TMP DP  RH WIND       PRES   REMARKS
FREDERICKSBRG* FAIR      91  75  59 SW3       29.85S HX 101
STAFFORD*      FAIR      88  76  68 CALM      29.91R HX  99

$$

NCZ024-NYZ072-PAZ021-071-VAZ022-071-220000-
OTHER REGIONAL OBSERVATIONS

CITY           SKY/WX    TMP DP  RH WIND       PRES   REMARKS
NEW YORK CITY  FAIR      88  67  49 VRB5      29.88S HX  91
PHILADELPHIA   PTSUNNY   91  69  48 SW10      29.87S HX  96
PITTSBURGH     FAIR      85  71  63 W6        29.96S HX  90
ROANOKE        PTSUNNY   89  71  55 S7        29.99F HX  95
RICHMOND       PTSUNNY   95  68  41 SW9       29.87F HX  99
RALEIGH        PTSUNNY   93  69  45 CALM      29.95S HX  98

$$

ANZ530>537-220000-
MARINE OBSERVATIONS

STATION/POSITION TIME  TEMP    WIND        PRES
                       AIR SEA DIR/SP/G
                 (UTC) (F)     (DEG/KT/KT) (MB)
THOMAS PT LIGHT  2300   87 86  170/  9/ 10   N/A
BALT KEY BRIDGE  2236   88     140/  9/ 11 1010.9F
COVE POINT       2236   87     180/ 10/ 11 1012.4F
LEWISETTA        2236   88 89  130/  7/  8 1011.9F
SOLOMONS ISLAND  2236   87 85  130/  8/ 10   N/A
PINEY POINT      2248          150/  9/ 10   N/A

$$





USA.gov is the U.S. government's official web portal to all federal, state and local government web resources and services.